When you browse on this site, cookies collect data to enhance your experience and personalize the content and advertising you see.
Visit our Privacy Policy to learn more. By continuing to use the site, you agree to this use of cookies and data.
  • In Hungary
  • List of Countries
  • For 7 days
  • Water Temperature
  • Satellite Maps
  • Weather Map
  • News
  • Weather Widgets
  • user-avatar
    Login

    Hourly Weather Kaznacheevo

    Today, 17 January, Thursday

    Time Temperature Precipitation Wind Pressure Humidity
    00:00 -10°C° 0 mm 3 mps 741 mmHg 92%
    01:00 -10°C° 0 mm 3 mps 742 mmHg 92%
    02:00 -12°C° 0 mm 4 mps 742 mmHg 92%
    03:00 -12°C° 0 mm 3 mps 742 mmHg 93%
    04:00 -12°C° 0 mm 3 mps 742 mmHg 93%
    05:00 -12°C° 0 mm 4 mps 743 mmHg 94%
    06:00 -12°C° 0 mm 4 mps 743 mmHg 94%
    07:00 -11°C° 0 mm 4 mps 743 mmHg 93%
    08:00 -11°C° 0 mm 4 mps 744 mmHg 93%
    09:00 -11°C° 0 mm 5 mps 744 mmHg 92%
    10:00 -11°C° 0 mm 5 mps 744 mmHg 91%
    11:00 -11°C° 0 mm 5 mps 744 mmHg 90%
    12:00 -11°C° 0 mm 6 mps 744 mmHg 89%
    13:00 -10°C° 0 mm 6 mps 744 mmHg 89%
    14:00 -11°C° 0 mm 7 mps 744 mmHg 89%
    15:00 -9°C° 0 mm 7 mps 743 mmHg 88%
    16:00 -9°C° 0.2 mm 7 mps 743 mmHg 89%
    17:00 -8°C° 0.2 mm 8 mps 743 mmHg 90%
    18:00 -8°C° 0.2 mm 8 mps 742 mmHg 90%
    19:00 -7°C° 0.4 mm 8 mps 742 mmHg 89%
    20:00 -7°C° 0.4 mm 8 mps 741 mmHg 89%
    21:00 -7°C° 0.4 mm 8 mps 741 mmHg 88%
    22:00 -6°C° 0.1 mm 9 mps 740 mmHg 87%
    23:00 -5°C° 0.1 mm 9 mps 740 mmHg 86%

    Tomorrow, 18 January, Friday

    Time Temperature Precipitation Wind Pressure Humidity
    00:00 -4°C° 0.1 mm 9 mps 740 mmHg 85%
    01:00 -4°C° 0 mm 9 mps 740 mmHg 85%
    02:00 -4°C° 0 mm 9 mps 740 mmHg 85%
    03:00 -4°C° 0 mm 9 mps 740 mmHg 85%
    04:00 -4°C° 0 mm 9 mps 740 mmHg 86%
    05:00 -2°C° 0 mm 8 mps 740 mmHg 86%
    06:00 -2°C° 0 mm 8 mps 740 mmHg 87%
    07:00 -2°C° 0 mm 8 mps 741 mmHg 88%
    08:00 -2°C° 0 mm 7 mps 741 mmHg 89%
    09:00 -2°C° 0 mm 7 mps 742 mmHg 89%
    10:00 -2°C° 0 mm 7 mps 742 mmHg 90%
    11:00 -2°C° 0 mm 6 mps 743 mmHg 90%
    12:00 -2°C° 0 mm 6 mps 743 mmHg 91%
    13:00 -2°C° 0 mm 6 mps 743 mmHg 91%
    14:00 -2°C° 0 mm 6 mps 743 mmHg 91%
    15:00 -1°C° 0 mm 5 mps 743 mmHg 92%
    16:00 -1°C° 0 mm 5 mps 743 mmHg 91%
    17:00 -1°C° 0 mm 5 mps 743 mmHg 91%
    18:00 -1°C° 0 mm 4 mps 743 mmHg 90%
    19:00 -1°C° 0.1 mm 5 mps 743 mmHg 90%
    20:00 -2°C° 0.1 mm 6 mps 742 mmHg 90%
    21:00 -2°C° 0.1 mm 7 mps 742 mmHg 91%
    22:00 -2°C° 0.5 mm 7 mps 741 mmHg 91%
    23:00 -2°C° 0.5 mm 8 mps 741 mmHg 90%

    Day after tomorrow, 19 January, Saturday

    Time Temperature Precipitation Wind Pressure Humidity
    00:00 -2°C° 0.5 mm 8 mps 741 mmHg 90%
    01:00 -2°C° 0.2 mm 8 mps 741 mmHg 89%
    02:00 -2°C° 0.2 mm 8 mps 741 mmHg 87%
    03:00 -2°C° 0.2 mm 8 mps 741 mmHg 85%
    04:00 -3°C° 0 mm 7 mps 742 mmHg 86%
    05:00 -4°C° 0 mm 7 mps 743 mmHg 86%
    06:00 -5°C° 0 mm 6 mps 744 mmHg 86%
    07:00 -7°C° 0 mm 5 mps 745 mmHg 88%
    08:00 -10°C° 0 mm 4 mps 745 mmHg 89%
    09:00 -12°C° 0 mm 3 mps 746 mmHg 91%
    10:00 -12°C° 0 mm 3 mps 747 mmHg 91%
    11:00 -11°C° 0 mm 4 mps 747 mmHg 91%
    12:00 -11°C° 0 mm 4 mps 748 mmHg 91%
    13:00 -11°C° 0 mm 4 mps 748 mmHg 91%
    14:00 -10°C° 0 mm 3 mps 748 mmHg 92%
    15:00 -10°C° 0 mm 3 mps 748 mmHg 93%
    16:00 -10°C° 0 mm 3 mps 749 mmHg 93%
    17:00 -10°C° 0 mm 3 mps 749 mmHg 93%
    18:00 -11°C° 0 mm 4 mps 749 mmHg 93%
    19:00 -11°C° 0 mm 4 mps 750 mmHg 92%
    20:00 -11°C° 0 mm 4 mps 750 mmHg 90%
    21:00 -11°C° 0 mm 4 mps 750 mmHg 89%
    22:00 -11°C° 0 mm 4 mps 750 mmHg 90%
    23:00 -12°C° 0 mm 4 mps 750 mmHg 91%

    20 January, Sunday

    Time Temperature Precipitation Wind Pressure Humidity
    00:00 -12°C° 0 mm 4 mps 751 mmHg 92%
    01:00 -12°C° 0 mm 4 mps 751 mmHg 92%
    02:00 -12°C° 0 mm 4 mps 751 mmHg 92%
    03:00 -12°C° 0 mm 4 mps 751 mmHg 92%
    04:00 -12°C° 0 mm 4 mps 751 mmHg 92%
    05:00 -12°C° 0 mm 4 mps 751 mmHg 92%
    06:00 -12°C° 0 mm 4 mps 751 mmHg 92%
    07:00 -12°C° 0 mm 4 mps 751 mmHg 92%
    08:00 -12°C° 0 mm 4 mps 752 mmHg 93%
    09:00 -11°C° 0 mm 4 mps 752 mmHg 93%
    10:00 -11°C° 0 mm 4 mps 752 mmHg 93%
    11:00 -11°C° 0 mm 5 mps 752 mmHg 92%
    12:00 -10°C° 0 mm 5 mps 752 mmHg 92%
    13:00 -10°C° 0 mm 5 mps 752 mmHg 91%
    14:00 -10°C° 0 mm 5 mps 752 mmHg 91%
    15:00 -11°C° 0 mm 5 mps 752 mmHg 91%
    16:00 -11°C° 0 mm 5 mps 751 mmHg 91%
    17:00 -12°C° 0 mm 5 mps 751 mmHg 92%
    18:00 -12°C° 0 mm 5 mps 751 mmHg 92%
    19:00 -11°C° 0 mm 6 mps 751 mmHg 91%
    20:00 -10°C° 0 mm 6 mps 751 mmHg 90%
    21:00 -10°C° 0 mm 6 mps 751 mmHg 89%
    22:00 -10°C° 0 mm 6 mps 750 mmHg 89%
    23:00 -10°C° 0 mm 6 mps 750 mmHg 89%

    21 January, Monday

    Time Temperature Precipitation Wind Pressure Humidity
    00:00 -10°C° 0 mm 6 mps 750 mmHg 88%
    01:00 -11°C° 0 mm 6 mps 750 mmHg 88%
    02:00 -14°C° 0 mm 6 mps 750 mmHg 88%
    03:00 -14°C° 0 mm 5 mps 750 mmHg 87%
    04:00 -15°C° 0 mm 5 mps 750 mmHg 88%
    05:00 -17°C° 0 mm 5 mps 749 mmHg 89%
    06:00 -17°C° 0 mm 5 mps 749 mmHg 89%
    07:00 -18°C° 0 mm 5 mps 749 mmHg 90%
    08:00 -17°C° 0 mm 4 mps 749 mmHg 91%
    09:00 -18°C° 0 mm 4 mps 749 mmHg 92%
    10:00 -18°C° 0 mm 5 mps 748 mmHg 92%
    11:00 -17°C° 0 mm 5 mps 748 mmHg 92%
    12:00 -17°C° 0 mm 5 mps 748 mmHg 92%
    13:00 -15°C° 0.1 mm 5 mps 747 mmHg 92%
    14:00 -14°C° 0.1 mm 5 mps 747 mmHg 92%
    15:00 -14°C° 0.1 mm 5 mps 747 mmHg 92%
    16:00 -14°C° 0.1 mm 4 mps 747 mmHg 92%
    17:00 -14°C° 0.1 mm 4 mps 747 mmHg 93%
    18:00 -14°C° 0.1 mm 4 mps 747 mmHg 94%
    19:00 -15°C° 0 mm 4 mps 747 mmHg 93%
    20:00 -16°C° 0 mm 4 mps 748 mmHg 92%
    21:00 -18°C° 0 mm 4 mps 748 mmHg 91%
    22:00 -18°C° 0 mm 4 mps 748 mmHg 92%
    23:00 -19°C° 0 mm 4 mps 749 mmHg 94%

    22 January, Tuesday

    Time Temperature Precipitation Wind Pressure Humidity
    00:00 -20°C° 0 mm 4 mps 749 mmHg 95%
    01:00 -19°C° 0 mm 3 mps 749 mmHg 96%
    02:00 -21°C° 0 mm 3 mps 749 mmHg 96%
    03:00 -21°C° 0 mm 3 mps 749 mmHg 97%
    04:00 -21°C° 0 mm 3 mps 749 mmHg 97%
    05:00 -21°C° 0 mm 3 mps 749 mmHg 97%
    06:00 -21°C° 0 mm 3 mps 749 mmHg 97%
    07:00 -20°C° 0 mm 4 mps 749 mmHg 96%
    08:00 -19°C° 0 mm 4 mps 750 mmHg 95%
    09:00 -18°C° 0 mm 4 mps 750 mmHg 94%
    10:00 -17°C° 0 mm 4 mps 750 mmHg 93%
    11:00 -15°C° 0 mm 5 mps 750 mmHg 92%
    12:00 -14°C° 0 mm 5 mps 750 mmHg 91%
    13:00 -13°C° 0 mm 5 mps 750 mmHg 90%
    14:00 -13°C° 0 mm 5 mps 750 mmHg 89%
    15:00 -11°C° 0 mm 4 mps 751 mmHg 88%
    16:00 -11°C° 0 mm 4 mps 751 mmHg 88%
    17:00 -11°C° 0 mm 4 mps 751 mmHg 89%
    18:00 -11°C° 0 mm 4 mps 751 mmHg 89%
    19:00 -11°C° 0 mm 4 mps 751 mmHg 90%
    20:00 -12°C° 0 mm 4 mps 751 mmHg 90%
    21:00 -13°C° 0 mm 5 mps 751 mmHg 91%
    22:00 -12°C° 0 mm 4 mps 751 mmHg 91%
    23:00 -12°C° 0 mm 4 mps 752 mmHg 92%
    Show more